Weather History for Sacramento / Mc Clellan, CA

Change the Weather History Date:

Tuesday, September 3, 2013

  Actual Average (KMHR) Record (KMHR)
Temperature  
Mean Temperature 73 °F -  
Max Temperature 84 °F 86 °F 96 °F (2001)
Min Temperature 62 °F 56 °F 53 °F (1996)
Cooling Degree Days 8    
Growing Degree Days 23 (Base 50)    
Moisture  
Dew Point 53 °F    
Average Humidity 56    
Maximum Humidity 78    
Minimum Humidity 22    
Precipitation  
Precipitation 0.00 in - - ()
Sea Level Pressure  
Sea Level Pressure 29.93 in    
Wind  
Wind Speed 9 mph (South)    
Max Wind Speed 15 mph    
Max Gust Speed 18 mph    
Visibility 10 miles    
Events      
Averages and records for this station are not official NWS values.
T = Trace of Precipitation, MM = Missing Value Source: NWS Daily Summary

Daily Weather History Graph

Daily Weather History Graph

Search for Another Location

Airport:

Trip Planner

Search our weather history database for the weather conditions in past years. The results will help you decide how hot, cold, wet, or windy it might be!

Date:

Astronomy

Sep. 03, 2013 Rise Set
Actual Time 6:36 AM PDT 7:32 PM PDT
Civil Twilight 6:09 AM PDT 7:59 PM PDT
Nautical Twilight 5:37 AM PDT 8:31 PM PDT
Astronomical Twilight 5:04 AM PDT 9:04 PM PDT
Moon 4:56 AM PDT (9/3) 6:22 PM PDT (9/3)
Length of Visible Light 13h 49m
Length of Day
12h 55m
Waning Crescent, 3% of the Moon is Illuminated
Sep 3
Waning Crescent
Sep 5
New
Sep 12
First Quarter
Sep 19
Full
Sep 26
Last Quarter

Hourly Weather History & Observations

Time (PDT) Temp. Dew Point Humidity Pressure Visibility Wind Dir Wind Speed Gust Speed Precip Events Conditions
12:10 AM 68.0 °F 59.0 °F 73% 29.90 in 10.0 mi South 11.5 mph - N/A   Clear
12:30 AM 68.0 °F 59.0 °F 73% 29.90 in 10.0 mi South 11.5 mph - N/A   Clear
12:50 AM 66.2 °F 59.0 °F 78% 29.90 in 10.0 mi South 10.4 mph - N/A   Clear
1:10 AM 66.2 °F 59.0 °F 78% 29.91 in 10.0 mi South 9.2 mph - N/A   Clear
1:30 AM 66.2 °F 59.0 °F 78% 29.91 in 10.0 mi South 9.2 mph - N/A   Clear
1:50 AM 64.4 °F 57.2 °F 77% 29.92 in 10.0 mi SSE 6.9 mph - N/A   Clear
2:10 AM 64.4 °F 57.2 °F 77% 29.92 in 10.0 mi SSE 6.9 mph - N/A   Clear
2:30 AM 64.4 °F 57.2 °F 77% 29.92 in 10.0 mi SSE 6.9 mph - N/A   Clear
2:50 AM 64.4 °F 57.2 °F 77% 29.92 in 10.0 mi SE 6.9 mph - N/A   Clear
3:10 AM 64.4 °F 57.2 °F 77% 29.92 in 10.0 mi SE 6.9 mph - N/A   Clear
3:30 AM 64.4 °F 57.2 °F 77% 29.91 in 10.0 mi SE 8.1 mph - N/A   Clear
3:50 AM 64.4 °F 57.2 °F 77% 29.91 in 10.0 mi SE 8.1 mph - N/A   Clear
4:10 AM 64.4 °F 57.2 °F 77% 29.91 in 10.0 mi SE 8.1 mph - N/A   Clear
4:30 AM 64.4 °F 57.2 °F 77% 29.91 in 10.0 mi SE 6.9 mph - N/A   Clear
4:50 AM 64.4 °F 57.2 °F 77% 29.92 in 10.0 mi SSE 8.1 mph - N/A   Clear
5:10 AM 64.4 °F 55.4 °F 73% 29.92 in 10.0 mi SSE 6.9 mph - N/A   Clear
5:30 AM 62.6 °F 55.4 °F 77% 29.92 in 10.0 mi SE 5.8 mph - N/A   Clear
5:50 AM 62.6 °F 55.4 °F 77% 29.92 in 10.0 mi SE 8.1 mph - N/A   Clear
6:10 AM 64.4 °F 55.4 °F 73% 29.93 in 10.0 mi SE 8.1 mph - N/A   Clear
6:30 AM 62.6 °F 55.4 °F 77% 29.93 in 10.0 mi SSE 6.9 mph - N/A   Clear
6:50 AM 62.6 °F 55.4 °F 77% 29.94 in 10.0 mi SSE 8.1 mph - N/A   Clear
7:10 AM 62.6 °F 55.4 °F 77% 29.95 in 10.0 mi SSE 5.8 mph - N/A   Clear
7:30 AM 64.4 °F 55.4 °F 73% 29.95 in 10.0 mi SSE 9.2 mph - N/A   Clear
7:50 AM 64.4 °F 55.4 °F 73% 29.95 in 10.0 mi SE 11.5 mph - N/A   Clear
8:10 AM 66.2 °F 57.2 °F 73% 29.96 in 10.0 mi SSE 10.4 mph - N/A   Clear
8:30 AM 66.2 °F 55.4 °F 68% 29.96 in 10.0 mi SSE 8.1 mph - N/A   Clear
8:50 AM 68.0 °F 57.2 °F 68% 29.96 in 10.0 mi SSE 9.2 mph - N/A   Clear
9:10 AM 68.0 °F 57.2 °F 68% 29.97 in 10.0 mi SSE 6.9 mph - N/A   Clear
9:30 AM 69.8 °F 57.2 °F 64% 29.97 in 10.0 mi SSE 9.2 mph - N/A   Clear
9:50 AM 71.6 °F 57.2 °F 60% 29.97 in 10.0 mi SSE 8.1 mph - N/A   Clear
10:10 AM 71.6 °F 55.4 °F 57% 29.98 in 10.0 mi SE 6.9 mph - N/A   Clear
10:30 AM 73.4 °F 55.4 °F 53% 29.98 in 10.0 mi South 4.6 mph - N/A   Clear
10:50 AM 73.4 °F 55.4 °F 53% 29.98 in 10.0 mi South 3.5 mph - N/A   Clear
11:10 AM 75.2 °F 55.4 °F 50% 29.98 in 10.0 mi South 5.8 mph - N/A   Clear
11:30 AM 75.2 °F 53.6 °F 47% 29.98 in 10.0 mi SSW 3.5 mph - N/A   Clear
11:50 AM 77.0 °F 53.6 °F 44% 29.97 in 10.0 mi South 4.6 mph - N/A   Clear
12:10 PM 77.0 °F 53.6 °F 44% 29.97 in 9.0 mi South 5.8 mph - N/A   Clear
12:30 PM 78.8 °F 53.6 °F 42% 29.96 in 8.0 mi South 5.8 mph - N/A   Clear
12:50 PM 80.6 °F 51.8 °F 37% 29.96 in 9.0 mi SW 5.8 mph - N/A   Clear
1:10 PM 80.6 °F 51.8 °F 37% 29.95 in 10.0 mi SW 5.8 mph - N/A   Clear
1:30 PM 80.6 °F 50.0 °F 34% 29.95 in 9.0 mi South 10.4 mph - N/A   Clear
1:50 PM 82.4 °F 48.2 °F 30% 29.95 in 9.0 mi South 6.9 mph 16.1 mph N/A   Clear
2:10 PM 82.4 °F 48.2 °F 30% 29.94 in 9.0 mi SSW 8.1 mph - N/A   Clear
2:30 PM 82.4 °F 46.4 °F 28% 29.94 in 10.0 mi SSW 5.8 mph - N/A   Clear
2:50 PM 84.2 °F 46.4 °F 27% 29.93 in 10.0 mi SW 10.4 mph - N/A   Clear
3:10 PM 84.2 °F 44.6 °F 25% 29.93 in 10.0 mi SSW 10.4 mph - N/A   Clear
3:30 PM 84.2 °F 44.6 °F 25% 29.92 in 9.0 mi South 8.1 mph 16.1 mph N/A   Clear
3:50 PM 84.2 °F 44.6 °F 25% 29.92 in 10.0 mi SSW 10.4 mph 16.1 mph N/A   Clear
4:10 PM 84.2 °F 41.0 °F 22% 29.91 in 10.0 mi SSW 9.2 mph - N/A   Clear
4:30 PM 84.2 °F 44.6 °F 25% 29.90 in 9.0 mi SSE 9.2 mph - N/A   Clear
4:50 PM 84.2 °F 44.6 °F 25% 29.90 in 10.0 mi South 12.7 mph - N/A   Clear
5:10 PM 84.2 °F 44.6 °F 25% 29.90 in 10.0 mi South 11.5 mph 16.1 mph N/A   Clear
5:30 PM 84.2 °F 44.6 °F 25% 29.90 in 10.0 mi South 10.4 mph - N/A   Clear
5:50 PM 84.2 °F 46.4 °F 27% 29.90 in 10.0 mi SSW 12.7 mph - N/A   Clear
6:10 PM 82.4 °F 46.4 °F 28% 29.89 in 10.0 mi South 11.5 mph 18.4 mph N/A   Clear
6:30 PM 80.6 °F 46.4 °F 30% 29.89 in 10.0 mi SSW 10.4 mph - N/A   Clear
6:50 PM 80.6 °F 48.2 °F 32% 29.89 in 10.0 mi SSW 11.5 mph 17.3 mph N/A   Clear
7:10 PM 77.0 °F 48.2 °F 36% 29.89 in 10.0 mi South 11.5 mph - N/A   Clear
7:30 PM 75.2 °F 50.0 °F 41% 29.90 in 10.0 mi South 9.2 mph - N/A   Clear
7:50 PM 75.2 °F 50.0 °F 41% 29.90 in 10.0 mi SSW 15.0 mph - N/A   Clear
8:10 PM 73.4 °F 50.0 °F 44% 29.91 in 10.0 mi South 13.8 mph - N/A   Clear
8:30 PM 71.6 °F 50.0 °F 46% 29.91 in 10.0 mi South 13.8 mph 17.3 mph N/A   Clear
8:50 PM 71.6 °F 51.8 °F 50% 29.92 in 10.0 mi SSW 11.5 mph - N/A   Clear
9:10 PM 69.8 °F 53.6 °F 56% 29.92 in 10.0 mi South 12.7 mph - N/A   Clear
9:30 PM 69.8 °F 53.6 °F 56% 29.92 in 10.0 mi South 10.4 mph - N/A   Clear
9:50 PM 68.0 °F 53.6 °F 60% 29.93 in 10.0 mi South 12.7 mph - N/A   Clear
10:10 PM 68.0 °F 55.4 °F 64% 29.93 in 10.0 mi South 9.2 mph - N/A   Clear
10:30 PM 66.2 °F 55.4 °F 68% 29.94 in 10.0 mi SSE 6.9 mph - N/A   Clear
10:50 PM 66.2 °F 55.4 °F 68% 29.94 in 10.0 mi SSE 9.2 mph - N/A   Clear
11:10 PM 64.4 °F 55.4 °F 73% 29.94 in 10.0 mi SSE 10.4 mph - N/A   Clear
11:30 PM 64.4 °F 55.4 °F 73% 29.94 in 10.0 mi SSE 9.2 mph - N/A   Clear
11:50 PM 64.4 °F 55.4 °F 73% 29.95 in 10.0 mi SE 9.2 mph - N/A   Clear